Location: Chanteloup
(48.8560°N, 2.7390°E)
Time: 15:38:48
(UTC+00:00)

Meteor 1-4 Rocket - Pass Details

Date: 24 October 2021
Orbit: 446 x 496 km, 81.2° (Epoch: 28 November)

Event Time Altitude Azimuth Distance (km) Brightness Sun altitude
Rises 18:30:13 0° 195° (SSW) 2,465 6.3 -18.4°
Reaches altitude 10° 18:32:18 10° 197° (SSW) 1,590 5.3 -18.7°
Maximum altitude 18:35:45 72° 282° (WNW) 479 2.6 -19.3°
Drops below altitude 10° 18:39:13 10° 8° (N) 1,589 5.1 -19.9°
Enters shadow 18:40:50 - 10° (N) 2,274 5.9 -20.1°
